Weather reports worldwide

Advertisment
Gotska sandoen, Sweden (2589): temperature & dewpoint: 10.10.2019 05:00:00 - 16.10.2019 05:00:00 (CEST)Gotska sandoen, Sweden (2589): wind speed & gusts: 10.10.2019 05:00:00 - 16.10.2019 05:00:00 (CEST)Gotska sandoen, Sweden (2589): wind direction: 10.10.2019 05:00:00 - 16.10.2019 05:00:00 (CEST)Gotska sandoen, Sweden (2589): reduced air pressure: 10.10.2019 05:00:00 - 16.10.2019 05:00:00 (CEST)Gotska sandoen, Sweden (2589): visibility: 10.10.2019 05:00:00 - 16.10.2019 05:00:00 (CEST)Gotska sandoen, Sweden (2589): precipitation: 10.10.2019 05:00:00 - 16.10.2019 05:00:00 (CEST)
Date & Time tt [°C] td [°C] ff [km/h] ff [kn] fx [km/h] fx [kn] dd ppp [hPa] vv [km] rr [mm]
16.10.2019 05:00:00 10,8 10,3 11 6 26 14 ESE 1007,9 - 0,0
16.10.2019 04:00:00 10,8 10,3 14 8 30 16 ESE 1008,3 - 0,0
16.10.2019 03:00:00 10,6 10,0 16 9 32 17 ESE 1009,3 - 0,0
16.10.2019 02:00:00 10,6 10,0 16 9 35 19 ESE 1009,6 - 0,0
16.10.2019 01:00:00 10,5 9,7 16 9 31 17 ESE 1010,5 - 0,0
16.10.2019 00:00:00 10,6 9,8 16 8 34 18 ESE 1011,3 - 0,0
15.10.2019 23:00:00 10,6 9,7 16 9 37 20 ESE 1011,7 - 0,0
15.10.2019 22:00:00 10,7 9,6 18 10 39 21 SE 1012,6 - 0,0
15.10.2019 21:00:00 10,4 9,3 18 10 39 21 SE 1012,7 0,1 0,0
15.10.2019 20:00:00 10,6 9,4 16 9 41 22 SE 1013,0 - 0,0
15.10.2019 19:00:00 10,4 9,0 16 9 37 20 ESE 1013,7 0,1 0,0
15.10.2019 18:00:00 10,2 8,6 16 9 34 18 ESE 1014,5 0,1 0,0
15.10.2019 17:00:00 10,1 8,5 13 7 35 19 SE 1015,1 - 0,0
15.10.2019 16:00:00 10,0 8,1 16 9 36 20 ESE 1015,5 0,1 0,0
15.10.2019 15:00:00 9,9 7,8 19 10 36 19 ESE 1015,9 0,1 0,0
15.10.2019 14:00:00 9,8 7,6 15 8 39 21 SE 1017,0 0,1 0,0
15.10.2019 13:00:00 9,8 7,2 15 8 37 20 SE 1017,4 0,1 0,0
15.10.2019 12:00:00 9,7 6,8 19 10 39 21 ESE 1017,6 0,1 0,0
15.10.2019 11:00:00 9,4 6,1 16 9 34 19 ESE 1018,4 0,1 0,0
15.10.2019 10:00:00 9,4 5,9 19 11 37 20 SE 1018,6 0,1 0,0
15.10.2019 09:00:00 - - - - - - - - - -
15.10.2019 08:00:00 9,7 7,0 15 8 29 16 SE 1018,9 0,1 0,0
15.10.2019 07:00:00 9,6 7,0 15 8 26 14 E 1018,7 0,1 0,0
15.10.2019 06:00:00 9,6 7,2 14 8 24 13 E 1019,2 0,1 0,0
15.10.2019 05:00:00 9,4 6,8 13 7 27 14 E 1019,0 0,1 0,0
15.10.2019 04:00:00 9,4 6,8 14 7 22 12 E 1019,0 0,1 0,0
15.10.2019 03:00:00 9,2 7,3 10 5 22 12 ENE 1018,7 0,1 0,0
15.10.2019 02:00:00 9,1 7,1 12 7 21 12 ENE 1018,5 0,1 0,0
15.10.2019 01:00:00 8,8 6,2 8 4 22 12 ENE 1018,2 0,1 0,0
15.10.2019 00:00:00 9,1 6,4 11 6 22 12 ENE 1017,7 0,1 0,0
14.10.2019 23:00:00 9,4 6,8 10 5 24 13 E 1017,1 0,1 0,0
14.10.2019 22:00:00 9,2 7,1 13 7 29 16 E 1016,5 0,1 0,0
14.10.2019 21:00:00 8,8 6,6 14 8 31 17 ENE 1015,5 - 0,0
14.10.2019 20:00:00 9,4 8,2 16 9 33 18 NE 1014,2 - 0,0
14.10.2019 19:00:00 9,5 8,1 19 10 40 21 NE 1013,0 - 0,0
14.10.2019 18:00:00 9,7 8,8 18 10 43 23 NE 1011,5 - 0,0
14.10.2019 17:00:00 9,7 9,4 19 10 37 20 NE 1009,4 - 0,0
14.10.2019 16:00:00 10,1 9,8 19 11 42 23 NE 1007,5 - 0,0
14.10.2019 15:00:00 10,8 10,5 16 9 29 16 NNE 1005,3 - 0,0
14.10.2019 14:00:00 11,3 11,1 14 8 39 21 WNW 1003,7 - 0,1
14.10.2019 13:00:00 12,0 11,2 20 11 47 25 W 1002,3 - 0,0
14.10.2019 12:00:00 12,4 11,5 27 15 43 23 W 1001,4 21 0,0
14.10.2019 11:00:00 12,5 12,3 25 13 39 21 W 1000,4 16 0,0
14.10.2019 10:00:00 11,3 11,1 24 13 43 23 W 999,9 5 0,0
14.10.2019 09:00:00 11,2 11,0 24 13 40 21 W 999,3 3,4 0,0
14.10.2019 08:00:00 10,4 10,2 10 5 32 18 S 999,3 7 0,1
14.10.2019 07:00:00 9,6 9,5 21 12 40 22 ESE 999,8 6 0,6
14.10.2019 06:00:00 9,3 9,2 20 11 40 22 ESE 1001,2 6 0,8
14.10.2019 05:00:00 9,0 8,9 21 11 40 22 ESE 1002,6 6 1,1
14.10.2019 04:00:00 9,2 9,1 16 9 27 14 ESE 1003,8 8 1,6
14.10.2019 03:00:00 9,5 9,4 14 7 24 13 ESE 1005,7 7 1,3
14.10.2019 02:00:00 9,8 9,5 11 6 24 13 SSE 1007,4 6 2,3
14.10.2019 01:00:00 10,3 9,4 11 6 20 11 S 1009,0 18 0,1
14.10.2019 00:00:00 10,2 9,3 11 6 22 12 S 1009,9 16 0,0
13.10.2019 23:00:00 10,0 9,2 12 6 19 11 S 1011,4 19 0,0
13.10.2019 22:00:00 10,0 9,2 11 6 22 12 SSW 1011,6 21 0,0
13.10.2019 21:00:00 9,9 9,1 11 6 22 12 SW 1011,6 21 0,0
13.10.2019 20:00:00 9,9 9,3 13 7 23 13 SW 1012,1 20 0,0
13.10.2019 19:00:00 9,7 9,1 11 6 19 11 SW 1012,0 17 0,0
13.10.2019 18:00:00 10,0 9,1 13 7 26 14 WSW 1011,6 19 0,0
13.10.2019 17:00:00 10,5 8,9 18 10 31 17 WSW 1011,5 20 0,0
13.10.2019 16:00:00 11,4 9,1 17 9 29 16 W 1011,1 22 0,0
13.10.2019 15:00:00 11,5 8,9 18 10 32 17 W 1010,6 27 0,0
13.10.2019 14:00:00 12,1 8,6 18 10 33 18 W 1009,9 36 0,0
13.10.2019 13:00:00 12,4 8,3 20 11 36 20 W 1009,2 33 0,0
13.10.2019 12:00:00 11,7 8,0 19 11 40 22 W 1008,6 32 0,0
13.10.2019 11:00:00 11,4 7,9 23 13 46 25 W 1007,9 39 0,0
13.10.2019 10:00:00 11,1 8,0 28 15 46 25 W 1007,1 41 0,0
13.10.2019 09:00:00 10,8 7,7 27 14 48 26 W 1005,9 39 0,0
13.10.2019 08:00:00 10,6 8,2 29 16 51 27 W 1004,8 41 0,0
13.10.2019 07:00:00 10,9 8,1 32 18 51 28 W 1003,9 32 0,0
13.10.2019 06:00:00 11,0 8,4 32 17 57 31 W 1003,2 30 0,0
13.10.2019 05:00:00 11,1 8,5 37 20 60 32 W 1002,7 34 0,0
13.10.2019 04:00:00 11,1 8,3 31 17 52 28 WSW 1002,2 35 0,0
13.10.2019 03:00:00 11,2 8,6 32 17 54 29 WSW 1001,7 36 0,0
13.10.2019 02:00:00 11,3 8,9 29 16 56 30 W 1001,3 30 0,0
13.10.2019 01:00:00 11,1 9,4 32 17 53 28 W 1001,0 30 0,0
13.10.2019 00:00:00 11,2 9,3 32 17 51 27 W 1000,3 27 0,0
12.10.2019 23:00:00 11,6 9,3 33 18 57 31 WSW 999,9 28 0,0
12.10.2019 22:00:00 11,6 9,0 33 18 58 32 W 999,5 27 0,0
12.10.2019 21:00:00 11,7 8,7 29 16 52 28 WSW 999,1 25 0,0
12.10.2019 20:00:00 11,8 9,4 31 17 48 26 WSW 999,0 24 0,0
12.10.2019 19:00:00 11,4 9,3 26 14 42 23 WSW 999,0 24 0,0
12.10.2019 18:00:00 11,4 9,3 24 13 45 25 WSW 998,8 25 0,0
12.10.2019 17:00:00 11,5 9,6 27 15 50 27 WSW 998,4 21 0,0
12.10.2019 16:00:00 11,9 9,8 26 14 50 27 WSW 998,3 20 0,0
12.10.2019 15:00:00 12,4 9,9 29 16 49 26 WSW 997,9 24 0,0
12.10.2019 14:00:00 12,3 9,5 25 13 48 26 WSW 997,5 27 0,0
12.10.2019 13:00:00 12,6 10,0 29 16 53 29 W 997,2 29 0,0
12.10.2019 12:00:00 11,7 9,4 31 17 48 26 W 996,5 31 0,0
12.10.2019 11:00:00 11,5 9,1 29 15 49 26 W 995,8 26 0,0
12.10.2019 10:00:00 11,2 8,9 30 16 50 27 W 994,9 24 0,0
12.10.2019 09:00:00 10,8 9,1 25 13 48 26 W 994,2 27 0,0
12.10.2019 08:00:00 10,1 8,7 29 16 53 29 W 993,5 23 0,0
12.10.2019 07:00:00 10,1 9,0 28 15 44 24 W 993,0 39 0,0
12.10.2019 06:00:00 10,1 9,5 29 16 51 28 W 992,6 33 0,2
12.10.2019 05:00:00 11,0 10,2 30 16 51 28 W 992,3 15 0,1
12.10.2019 04:00:00 11,0 10,2 30 16 50 27 W 992,3 38 0,0
12.10.2019 03:00:00 11,2 10,3 31 17 56 30 W 992,1 44 0,0
12.10.2019 02:00:00 11,2 10,3 34 18 54 29 WSW 992,5 41 0,0
12.10.2019 01:00:00 11,1 10,2 29 15 48 26 WSW 992,7 44 0,0
12.10.2019 00:00:00 11,0 10,4 28 15 56 30 WSW 993,2 23 0,0
11.10.2019 23:00:00 11,5 11,3 28 15 51 27 SW 993,9 12 0,2
11.10.2019 22:00:00 11,4 11,2 27 15 53 29 SW 994,4 11 0,7
11.10.2019 21:00:00 11,3 11,1 31 17 51 27 SW 995,7 6 0,7
11.10.2019 20:00:00 11,6 10,8 28 15 47 25 SW 995,9 15 0,0
11.10.2019 19:00:00 11,5 10,9 24 13 46 25 SW 996,7 22 0,0
11.10.2019 18:00:00 11,3 10,8 27 15 49 26 SW 997,3 17 0,0
11.10.2019 17:00:00 11,2 10,9 23 13 43 23 WSW 997,7 19 0,0
11.10.2019 16:00:00 11,0 10,8 22 12 37 20 WSW 997,9 14 0,3
11.10.2019 15:00:00 10,2 10,0 19 10 40 21 SSW 998,8 7 0,2
11.10.2019 14:00:00 11,3 10,0 23 12 45 24 SW 999,6 20 0,0
11.10.2019 13:00:00 11,2 10,6 25 14 47 26 WSW 1000,3 14 0,5
11.10.2019 12:00:00 11,1 10,2 28 15 45 24 SW 1000,8 9 0,0
11.10.2019 11:00:00 11,9 10,1 23 13 45 25 WSW 1001,0 30 0,0
11.10.2019 10:00:00 11,0 9,6 24 13 44 24 WSW 1001,1 43 0,0
11.10.2019 09:00:00 10,7 9,5 24 13 41 22 WSW 1001,0 39 0,0
11.10.2019 08:00:00 10,3 9,4 23 13 37 20 WSW 1000,9 40 0,0
11.10.2019 07:00:00 10,1 9,0 21 12 40 22 WSW 1000,9 37 0,0
11.10.2019 06:00:00 10,1 8,5 20 11 36 20 WSW 1001,2 38 0,0
11.10.2019 05:00:00 9,5 8,7 20 11 37 20 W 1001,3 26 0,0
11.10.2019 04:00:00 10,0 9,1 24 13 39 21 W 1001,5 30 0,0
11.10.2019 03:00:00 9,9 8,8 19 10 36 20 W 1001,3 38 0,0
11.10.2019 02:00:00 10,3 9,2 21 11 35 19 W 1001,3 35 0,0
11.10.2019 01:00:00 10,5 9,4 22 12 37 20 W 1001,2 42 0,0
11.10.2019 00:00:00 10,4 9,5 20 11 35 19 W 1001,1 38 0,0
10.10.2019 23:00:00 10,8 9,7 21 11 34 19 W 1001,1 47 0,0
10.10.2019 22:00:00 10,5 9,6 18 10 32 17 W 1001,0 50 0,0
10.10.2019 21:00:00 10,7 9,8 18 10 32 18 WSW 1000,9 50 0,1
10.10.2019 20:00:00 10,7 9,6 16 9 32 17 WSW 1000,8 47 0,0
10.10.2019 19:00:00 10,5 9,6 17 9 29 16 WSW 1000,8 29 0,0
10.10.2019 18:00:00 10,2 9,3 16 8 26 14 W 1000,6 37 0,0
10.10.2019 17:00:00 10,4 9,2 16 8 26 14 W 1000,5 40 0,0
10.10.2019 16:00:00 10,7 9,3 13 7 24 13 WSW 1000,2 50 0,0
10.10.2019 15:00:00 10,9 9,7 13 7 26 14 WSW 1000,1 37 0,0
10.10.2019 14:00:00 10,9 9,8 12 6 28 15 WSW 999,9 24 0,0
10.10.2019 13:00:00 12,3 10,9 14 8 24 13 W 999,6 26 0,0
10.10.2019 12:00:00 11,1 10,8 11 6 20 11 W 999,6 17 0,0
10.10.2019 11:00:00 10,9 10,7 11 6 22 12 W 999,3 10 0,0
10.10.2019 10:00:00 10,2 10,0 13 7 21 11 WSW 999,2 9 -
10.10.2019 09:00:00 9,1 9,0 3 1 12 7 S 999,0 1,2 5,2
10.10.2019 08:00:00 9,2 9,1 7 4 17 9 SW 999,0 3,6 2,6
10.10.2019 07:00:00 9,5 9,4 8 4 16 9 SSW 999,0 6 0,8
10.10.2019 06:00:00 9,7 9,2 13 7 25 13 WSW 999,1 24 0,1
10.10.2019 05:00:00 10,5 10,2 13 7 24 13 WSW 999,3 15 0,0

tt = temperature
td = dewpoint
ff = wind speed
fx = gusts
dd = wind direction
ppp = reduced air pressure
vv = visibility
rr = precipitation

Next stations